Date String (YYYY-MM-DD hh:mm:ss) UTC,Instrument flags,Ambient pressure (hPa),Sample flow (lpm),Bypass flow (lpm),Sample temperature (°C),Ambient temperature (°C),ASC tube jacket temperature (°C),LED temperature (°C),Box temperature (°C),Sample RH (%),Span deviation,Mass concentration (μg/m³),Mass concentration (μg/m³),Mass concentration (μg/m³)
DateTimeUTC,F1_M11,P_M11,Q1_M11,Q2_M11,T1_M11,T2_M11,T3_M11,T4_M11,T5_M11,U1_M11,ZSPAN_M11,X0_M11,X2_M11,X1_M11
2021-09-04 05:00:00,,0831.2,5.00,0.00,29.6,27.0,00.0,38.9,31.1,34.6,-000.3,0015.46,0008.99,0008.05
2021-09-04 05:01:00,,0831.2,4.99,0.00,29.6,27.4,00.0,38.9,31.2,34.7,-000.5,0015.60,0009.02,0008.10
2021-09-04 05:02:00,,0831.2,5.01,0.00,29.6,27.7,00.0,38.8,31.3,34.6,-000.4,0016.15,0009.04,0008.11
2021-09-04 05:03:00,,0831.2,4.99,0.00,29.6,28.0,00.0,38.8,31.3,34.7,-000.5,0016.43,0009.05,0008.14
2021-09-04 05:04:00,,0831.3,4.99,0.00,29.7,28.2,00.0,38.8,31.4,34.7,-000.4,0016.35,0009.05,0008.18
2021-09-04 05:05:00,,0831.3,5.01,0.00,29.7,28.3,00.0,38.8,31.4,34.5,-000.9,0016.50,0009.10,0008.19
2021-09-04 05:06:00,,0831.3,4.99,0.00,29.7,28.5,00.0,38.8,31.4,34.4,-001.2,0016.53,0009.16,0008.22
2021-09-04 05:07:00,,0831.3,5.01,0.00,29.7,28.6,00.0,38.8,31.5,34.4,-001.2,0016.63,0009.14,0008.24
2021-09-04 05:08:00,,0831.2,5.00,0.00,29.8,28.7,00.0,38.8,31.5,34.3,-001.2,0016.91,0009.15,0008.25
2021-09-04 05:09:00,,0831.2,4.99,0.00,29.8,28.7,00.0,38.8,31.5,34.2,-001.0,0016.16,0009.20,0008.27
2021-09-04 05:10:00,,0831.2,5.00,0.00,29.8,28.8,00.0,38.9,31.6,34.1,-001.2,0016.43,0009.20,0008.28
2021-09-04 05:11:00,,0831.2,5.01,0.00,29.8,28.9,00.0,38.9,31.6,34.1,-001.1,0016.39,0009.19,0008.29
2021-09-04 05:12:00,,0831.2,5.01,0.00,29.9,28.9,00.0,38.9,31.6,34.1,-001.0,0016.34,0009.16,0008.26
2021-09-04 05:13:00,,0831.2,4.99,0.00,29.9,29.0,00.0,38.9,31.6,34.0,-000.9,0015.51,0009.12,0008.25
2021-09-04 05:14:00,,0831.2,5.00,0.00,29.9,29.0,00.0,38.9,31.7,34.0,-000.8,0015.02,0009.12,0008.25
2021-09-04 05:15:00,,0831.2,5.01,0.00,29.9,29.0,00.0,38.9,31.7,33.9,-000.7,0015.06,0009.11,0008.24
2021-09-04 05:16:00,,0831.2,5.00,0.00,30.0,29.1,00.0,39.0,31.7,33.9,-000.6,0015.01,0009.11,0008.25
2021-09-04 05:17:00,,0831.2,4.99,0.00,30.0,29.1,00.0,39.0,31.7,33.8,-000.3,0014.76,0009.04,0008.26
2021-09-04 05:18:00,,0831.2,5.00,0.00,30.0,28.9,00.0,39.0,31.7,33.8,-000.2,0014.48,0009.03,0008.26
2021-09-04 05:19:00,,0831.2,5.00,0.00,29.9,27.0,00.0,39.0,31.2,34.0,-000.1,0013.81,0009.03,0008.26
2021-09-04 05:20:00,,0831.2,5.00,0.00,29.8,26.2,00.0,39.0,31.0,34.3,-000.2,0013.72,0008.98,0008.27
2021-09-04 05:21:00,,0831.2,5.00,0.00,29.7,26.4,00.0,38.9,31.0,34.4,-000.1,0013.30,0008.97,0008.26
2021-09-04 05:22:00,,0831.2,5.00,0.00,29.6,26.8,00.0,38.9,31.1,34.6,-000.3,0013.88,0008.94,0008.25
2021-09-04 05:23:00,,0831.1,5.00,0.00,29.6,27.2,00.0,38.8,31.1,34.7,-000.4,0014.88,0008.95,0008.26
2021-09-04 05:24:00,,0831.1,5.01,0.00,29.6,27.5,00.0,38.8,31.2,34.8,-000.5,0014.95,0008.97,0008.27
2021-09-04 05:25:00,,0831.0,4.99,0.00,29.6,27.8,00.0,38.8,31.2,34.7,-000.5,0014.97,0009.00,0008.29
2021-09-04 05:26:00,,0831.0,5.01,0.00,29.6,28.0,00.0,38.8,31.3,34.7,-000.4,0014.80,0008.99,0008.28
2021-09-04 05:27:00,,0831.0,4.99,0.00,29.6,28.2,00.0,38.8,31.3,34.7,-000.3,0014.74,0008.95,0008.26
2021-09-04 05:28:00,,0831.0,4.99,0.00,29.7,28.3,00.0,38.8,31.4,34.6,-000.3,0014.90,0008.96,0008.24
2021-09-04 05:29:00,,0831.0,5.01,0.00,29.7,28.5,00.0,38.8,31.4,34.5,-000.5,0014.91,0008.97,0008.24
2021-09-04 05:30:00,,0831.0,5.00,0.00,29.7,28.6,00.0,38.8,31.4,34.4,-000.6,0014.75,0008.95,0008.24
2021-09-04 05:31:00,,0831.0,5.01,0.00,29.7,28.6,00.0,38.8,31.5,34.4,-000.8,0014.79,0008.96,0008.22
2021-09-04 05:32:00,,0831.0,4.98,0.00,29.8,28.7,00.0,38.8,31.5,34.3,-000.8,0014.90,0009.01,0008.23
2021-09-04 05:33:00,,0830.9,5.00,0.00,29.8,28.8,00.0,38.8,31.6,34.2,-000.9,0014.70,0009.00,0008.25
2021-09-04 05:34:00,,0830.9,5.01,0.00,29.8,28.8,00.0,38.8,31.6,34.2,-000.9,0013.37,0008.98,0008.24
2021-09-04 05:35:00,,0830.9,4.98,0.00,29.8,28.9,00.0,38.8,31.6,34.1,-000.9,0013.24,0008.95,0008.22
2021-09-04 05:36:00,,0830.9,4.99,0.00,29.9,29.0,00.0,38.9,31.7,34.1,-001.2,0013.85,0008.97,0008.22
2021-09-04 05:37:00,,0830.9,5.00,0.00,29.9,29.0,00.0,38.9,31.7,34.0,-001.4,0013.91,0008.97,0008.22
2021-09-04 05:38:00,,0830.8,5.01,0.00,29.9,29.0,00.0,38.9,31.7,34.0,-001.6,0014.06,0009.03,0008.25
2021-09-04 05:39:00,,0830.7,5.00,0.00,29.9,29.1,00.0,38.9,31.8,33.9,-001.4,0014.04,0009.04,0008.27
2021-09-04 05:40:00,,0830.8,5.00,0.00,30.0,29.1,00.0,38.9,31.8,33.9,-001.2,0014.58,0009.03,0008.27
2021-09-04 05:41:00,,0830.8,4.99,0.00,30.0,29.1,00.0,39.0,31.7,33.8,-001.1,0014.75,0009.03,0008.28
2021-09-04 05:42:00,,0830.7,5.01,0.00,30.0,27.9,00.0,39.0,31.5,33.8,-001.0,0014.61,0009.03,0008.29
2021-09-04 05:43:00,,0830.6,5.00,0.00,29.8,26.5,00.0,39.0,31.1,34.2,-001.0,0014.49,0008.99,0008.30
2021-09-04 05:44:00,,0830.6,5.01,0.00,29.7,26.2,00.0,38.9,31.0,34.4,-001.0,0014.29,0008.98,0008.29
2021-09-04 05:45:00,,0830.6,5.00,0.00,29.6,26.6,00.0,38.9,31.1,34.5,-001.1,0014.72,0009.01,0008.30
2021-09-04 05:46:00,,0830.6,5.00,0.00,29.5,27.1,00.0,38.8,31.1,34.6,-001.1,0015.72,0009.03,0008.32
2021-09-04 05:47:00,,0830.6,4.99,0.00,29.5,27.4,00.0,38.8,31.1,34.6,-000.9,0015.37,0009.01,0008.33
2021-09-04 05:48:00,,0830.6,5.01,0.00,29.6,27.7,00.0,38.8,31.2,34.6,-000.5,0015.35,0009.02,0008.34
2021-09-04 05:49:00,,0830.6,5.00,0.00,29.6,27.9,00.0,38.8,31.3,34.6,-000.3,0015.21,0008.99,0008.34
2021-09-04 05:50:00,,0830.5,5.00,0.00,29.6,28.1,00.0,38.8,31.3,34.5,-000.6,0015.09,0008.97,0008.34
2021-09-04 05:51:00,,0830.6,5.00,0.00,29.6,28.3,00.0,38.8,31.4,34.5,-000.6,0014.52,0008.99,0008.34
2021-09-04 05:52:00,,0830.6,5.00,0.00,29.6,28.4,00.0,38.8,31.4,34.5,-000.6,0016.15,0009.02,0008.35
2021-09-04 05:53:00,,0830.6,4.99,0.00,29.7,28.5,00.0,38.8,31.4,34.4,-000.6,0017.89,0009.02,0008.35
2021-09-04 05:54:00,,0830.6,5.01,0.00,29.7,28.6,00.0,38.8,31.5,34.3,-000.6,0018.01,0009.02,0008.35
2021-09-04 05:55:00,,0830.6,5.00,0.00,29.7,28.7,00.0,38.8,31.5,33.9,-000.6,0018.43,0009.04,0008.35
2021-09-04 05:56:00,,0830.6,4.99,0.00,29.8,28.8,00.0,38.8,31.5,33.9,-000.6,0019.05,0009.09,0008.36
2021-09-04 05:57:00,,0830.6,5.01,0.00,29.8,28.8,00.0,38.8,31.6,33.9,-000.6,0018.45,0009.10,0008.36
2021-09-04 05:58:00,,0830.6,4.99,0.00,29.8,28.9,00.0,38.8,31.6,33.8,-000.6,0018.41,0009.11,0008.38
2021-09-04 05:59:00,,0830.6,5.00,0.00,29.8,28.9,00.0,38.9,31.6,33.7,-000.7,0018.37,0009.14,0008.41
